Location: ?ern�ky
(50.1022°N, 14.8207°E)
Time: 23:47:19
(UTC+00:00)

Daily predictions for brighter satellites

Satellite Brightness Start Highest point End
(mag) Time Altitude Azimuth Time Altitude Azimuth Time Altitude Azimuth
COSMOS 2406 4.1 15:27:59 10° SSE 15:32:56 30° ESE 15:37:52 10° NE
USA 267 3.8 15:30:19 10° ENE 15:36:35 47° SE 15:42:51 10° SSW
Cosmos 1092 Rocket 4.3 15:30:49 10° N 15:36:55 46° ENE 15:42:58 10° SE
Cosmos 1842 Rocket 3.6 15:32:44 10° S 15:37:09 65° E 15:41:37 10° NNE
Meteor 1-31 Rocket 3.8 15:36:18 10° S 15:40:01 50° W 15:43:45 10° NNW
CZ-2C R/B 2.8 15:36:41 10° SSE 15:41:31 70° ENE 15:46:16 10° N
USA 307 3.3 15:37:24 10° W 15:41:34 51° N 15:45:44 10° ENE
H-2A R/B 4.4 15:38:45 10° SSW 15:42:09 36° W 15:45:34 10° NNW
CZ-4C R/B 3.1 15:35:46 10° NW 15:42:23 51° NE 15:50:15 10° ESE
CZ-2C R/B 4.2 15:41:58 10° NE 15:44:38 14° E 15:47:17 10° ESE
Cosmos 1606 3.0 15:41:58 10° SSW 15:45:43 70° W 15:49:32 10° N
Cosmos 1782 4.0 15:44:47 10° SE 15:47:57 23° E 15:51:06 10° NE
Cosmos 1763 Rocket 3.6 15:43:01 10° S 15:47:58 56° ESE 15:52:59 10° NNE
USA 229 DEB 4.1 15:44:07 10° NW 15:51:24 80° SW 15:59:11 10° SE
USA 229 4.1 15:44:11 10° NW 15:51:30 81° SW 15:59:16 10° SE
Cosmos 1500 4.0 15:49:15 10° N 15:52:34 29° ENE 15:55:51 10° SE
H-2A R/B 2.7 15:48:54 10° SE 15:53:23 32° ENE 15:57:49 10° N
CZ-4B R/B 4.0 15:49:16 10° ESE 15:53:45 28° ENE 15:58:11 10° N
CZ-2D R/B 4.1 15:52:01 10° SE 15:55:17 27° ENE 15:58:33 10° N
Cosmos 841 Rocket 4.3 15:51:00 10° SSE 15:55:28 31° ESE 15:59:57 10° NE
Cosmos 2360 4.2 15:50:03 10° NNW 15:55:50 82° ENE 16:01:34 10° SSE
Cosmos 1340 Rocket 3.0 15:52:31 10° NNW 15:56:37 78° WSW 16:00:41 10° S
Cosmos 1937 Rocket 3.5 15:53:21 10° NNW 15:58:41 71° ENE 16:03:59 10° SSE
SeaSat 1 3.8 15:54:22 10° NNE 15:58:49 35° NW 16:03:15 10° WSW
ATLAS CENTAUR R/B 3.3 15:55:32 10° WNW 15:58:58 22° NNW 16:02:34 10° NNE
CZ-4C R/B 3.7 15:56:01 10° N 15:59:52 61° WNW 16:03:28 10° SSW
ATLAS 2AS CENTAUR R/B 4.0 15:53:28 10° WNW 16:00:13 31° NNW 16:06:35 10° NE
Meteor 1-20 Rocket 4.3 15:54:46 10° N 16:00:39 80° ENE 16:06:30 10° SSE
COSMOS 2455 3.5 15:58:42 10° S 16:04:11 38° ESE 16:09:18 12° NE
USA 308 3.3 16:00:03 10° WNW 16:04:12 49° N 16:07:37 14° ENE
Cosmos 2034 Rocket 4.0 15:58:20 10° S 16:04:30 86° E 16:10:42 10° N
SMAP 3.0 16:00:18 10° SSE 16:04:54 67° ENE 16:09:33 10° N
Lacrosse 5 rocket 1.7 16:02:13 10° NW 16:05:54 41° NNE 16:09:12 13° E
COSMO-SKYMED 1 4.1 16:04:26 13° ENE 16:06:28 17° E 16:09:20 10° SE
Cosmos 372 Rocket 4.1 16:01:37 10° NNW 16:06:48 55° ENE 16:11:56 10° SE
Cosmos 2360 Rocket 3.7 16:04:40 10° N 16:08:13 16° NNE 16:10:24 14° ENE
ATLAS CENTAUR R/B 3.2 15:58:19 10° SW 16:08:29 61° SE 16:12:03 15° ENE
AQUARIUS 4.1 16:05:21 10° SSE 16:09:46 63° ENE 16:14:14 10° N
USA 234 3.3 16:05:08 10° ESE 16:11:43 86° SW 16:18:17 10° WNW
Cosmos 44 Rocket 3.8 16:08:02 10° NNW 16:12:41 38° NE 16:17:12 10° ESE
Cosmos 1633 Rocket 3.8 16:08:53 10° N 16:12:44 29° ENE 16:16:35 10° SE
SL-24 R/B - RUBIN 2 3.5 16:09:46 10° NW 16:14:24 81° NE 16:18:44 10° SE
ISS -3.3 16:13:04 10° WNW 16:16:27 62° SSW 16:19:48 10° ESE
NOAA 6 4.0 16:11:57 10° SSE 16:17:05 84° ENE 16:22:15 10° NNW
YAOGAN 1 4.2 16:19:41 16° NE 16:19:41 16° NE 16:21:39 10° NNE
NOSS 2-2 (D) 4.3 16:14:38 10° NW 16:19:38 89° NE 16:26:41 10° SE
Cosmos 1666 3.2 16:18:28 10° N 16:21:54 33° ENE 16:25:18 10° SE
Cosmos 1634 Rocket 4.1 16:18:05 10° S 16:24:17 61° E 16:30:32 10° NNE
Cosmos 1151 Rocket 3.7 16:20:51 10° SSE 16:24:42 32° E 16:27:48 14° NNE
Meteor 2-14 Rocket 4.4 16:18:46 10° N 16:24:55 75° ENE 16:30:59 10° SSE
Cosmos 2026 Rocket 3.9 16:19:52 10° N 16:26:04 81° E 16:32:08 10° SSE
PSLV R/B 3.6 16:23:24 10° SSE 16:27:03 65° ENE 16:30:47 10° N
Cosmos 1743 Rocket 4.5 16:23:59 10° NNW 16:28:11 51° W 16:32:22 10° S
Cosmos 2322 Rocket 3.1 16:24:38 10° NNW 16:29:27 27° NE 16:32:01 20° E
CZ-4B R/B 4.3 16:26:04 10° S 16:29:52 41° W 16:33:30 10° NNW
Cosmos 1697 Rocket 3.5 16:24:53 10° NW 16:30:22 55° WSW 16:35:49 10° S
USA 305 3.2 16:26:12 10° WNW 16:30:22 50° N 16:32:40 24° ENE
Cosmos 1933 3.3 16:27:16 10° S 16:31:19 84° W 16:35:22 10° N
SL-08 R/B 4.3 16:29:45 10° N 16:34:15 45° WNW 16:38:40 10° SW
Cosmos 1980 Rocket 2.2 16:29:33 10° NNW 16:35:17 89° WSW 16:40:55 10° SSE
Okean O Rocket 2.0 16:32:30 10° SE 16:36:39 40° ENE 16:40:50 10° N
Cosmos 540 Rocket 3.4 16:33:57 10° SSW 16:39:03 86° ESE 16:43:47 12° NNE
Cosmos 2369 4.1 16:33:52 10° NNW 16:39:35 69° WSW 16:45:15 10° SSE
Cosmos 1666 Rocket 3.5 16:35:11 10° N 16:39:38 62° ENE 16:43:59 10° SSE
MOS 1-B 4.3 16:36:59 10° SSE 16:42:44 80° ENE 16:48:33 10° NNW
Cosmos 1470 Rocket 4.1 16:38:44 10° N 16:42:50 35° ENE 16:46:57 10° SE
Cosmos 1328 Rocket 4.1 16:41:05 10° SSE 16:45:09 37° E 16:46:57 26° NE
SJ-11-01 4.4 16:40:45 10° SE 16:45:19 50° ENE 16:49:55 10° N
Meteor 1-5 Rocket 4.3 16:39:25 10° N 16:45:25 68° ENE 16:51:18 10° SSE
Cosmos 1812 2.7 16:42:50 10° S 16:46:36 56° E 16:48:49 23° NNE
Meteor 1-14 Rocket 4.2 16:41:50 10° N 16:47:42 77° ENE 16:53:38 10° SSE
SL-16 R/B 2.6 16:42:47 10° NNW 16:48:10 41° NE 16:51:23 22° ESE
Cosmos 1655 Rocket 4.3 16:42:59 10° N 16:49:07 45° ENE 16:55:10 10° SE
ERBS 3.7 16:46:33 10° WNW 16:49:13 24° N 16:49:40 23° N
Meteor 2-21 Rocket 4.4 16:43:13 10° N 16:49:22 84° E 16:55:26 10° S
EP 1 4.3 16:46:31 10° SW 16:49:43 85° SE 16:50:09 59° NE
Cosmos 1570 Rocket 4.2 16:47:22 10° S 16:52:23 49° ESE 16:55:00 26° NE
Cosmos 2082 Rocket 2.1 16:47:22 10° SSW 16:53:00 71° ESE 16:56:53 21° NE
Cosmos 2298 Rocket 4.2 16:48:05 10° NNW 16:53:15 48° ENE 16:58:06 12° SE
Cosmos 1814 Rocket 4.0 16:49:14 10° S 16:54:20 58° ESE 16:57:16 25° NE
SKYMED 2 3.8 16:53:03 29° NE 16:54:55 47° E 16:59:06 10° S
MOS 1-B Rocket 4.0 16:54:43 10° NNE 17:00:36 73° ESE 17:07:17 10° S
Cosmos 2333 Rocket 3.6 16:56:44 10° NNW 17:00:43 20° NNE 17:00:43 20° NNE
USA 306 3.0 16:58:27 10° WNW 17:02:39 57° NNE 17:03:34 45° ENE
Cosmos 2278 3.8 16:57:33 10° NNW 17:03:17 77° WSW 17:08:57 10° SSE
Sich 1 4.2 16:59:27 10° NNW 17:03:33 44° W 17:07:39 10° SSW
Cosmos 1818 3.5 16:59:09 10° NW 17:04:41 80° NE 17:08:58 17° SE
ARGOS 3.0 17:01:07 10° SSE 17:06:31 76° ENE 17:11:56 10° NNW
Cosmos 1833 Rocket 3.6 17:07:42 10° SW 17:13:07 46° NW 17:17:33 15° NNE
GEOS 3 Rocket 3.6 17:13:44 39° E 17:15:27 59° NE 17:20:33 10° NW
COSMOS 2406 3.8 17:11:20 10° SW 17:16:58 54° NW 17:21:11 18° NNE
deb Chang Zheng 4 3.7 17:13:35 10° S 17:17:54 74° WSW 17:22:14 10° NNW
USA 267 3.3 17:16:34 32° NE 17:19:53 75° NNW 17:26:24 10° WSW
Cosmos 2219 Rocket 3.7 17:17:34 10° N 17:20:35 20° NNE 17:20:35 20° NNE
USA 307 2.9 17:17:39 10° WNW 17:21:53 61° NNE 17:21:59 61° NNE
Cosmos 1782 4.4 17:20:22 10° SW 17:24:03 35° WNW 17:27:45 10° N
CZ-2C R/B 2.4 17:21:47 18° NNE 17:25:44 88° ESE 17:30:55 10° SSW
Cosmos 2208 Rocket 3.9 17:22:17 10° SSW 17:27:41 76° ESE 17:29:27 44° NE
Cosmos 1515 Rocket 4.5 17:24:09 10° S 17:26:52 35° SSE 17:26:52 35° SSE
SL-08 RB Rocket 3.6 17:24:17 10° SSE 17:28:56 86° ENE 17:33:33 10° NNW
Cosmos 2150 Rocket 3.8 17:25:06 10° NNW 17:30:19 84° ENE 17:33:12 27° SSE
CZ-4C R/B 3.5 17:24:14 10° NW 17:31:19 60° SW 17:39:33 10° SSE
H-2A R/B 3.2 17:27:51 10° S 17:32:43 42° W 17:37:30 10° NNW
Meteor 2-6 Rocket 4.1 17:27:04 10° S 17:32:48 88° W 17:36:56 19° NNE
CZ-4B R/B 3.8 17:28:44 10° S 17:34:01 55° WSW 17:39:17 10° NNW
Cosmos 841 Rocket 4.4 17:32:15 10° SW 17:37:11 44° WNW 17:40:21 21° N
ATLAS CENTAUR R/B 3.9 17:37:10 10° NNW 17:39:25 13° N 17:39:25 13° N
COSMO-SKYMED 1 3.0 17:41:39 39° N 17:43:02 60° WNW 17:47:18 10° SSW
USA 308 3.4 17:40:12 10° WNW 17:43:39 55° NW 17:43:39 55° NW
Lacrosse 5 rocket 1.9 17:41:15 10° WNW 17:44:49 55° WSW 17:44:49 55° WSW
Cosmos 1125 Rocket 3.5 17:40:13 10° NNW 17:45:29 81° WSW 17:47:31 39° SSE
Cosmos 2237 4.1 17:40:40 10° NNW 17:46:08 64° NE 17:46:08 64° NE
Cosmos 921 Rocket 3.9 17:42:38 10° SSW 17:45:22 40° SSW 17:45:22 40° SSW
COSMOS 2455 3.5 17:44:09 10° WSW 17:50:01 52° NW 17:52:28 33° NNE
NOSS 3-4 (A) 4.2 17:44:27 10° NW 17:50:40 41° NNE 17:50:44 41° NNE
NOSS 3-4 (C) 4.2 17:44:33 10° NW 17:50:46 40° NNE 17:50:49 40° NNE
ISS -1.0 17:50:42 10° W 17:52:46 15° SW 17:53:03 15° SW
Meteor 2-15 Rocket 4.3 17:47:01 10° S 17:53:09 85° E 17:55:52 36° NNE
ATLAS 2AS CENTAUR R/B 3.7 17:46:46 10° NW 17:53:22 31° NNE 17:54:01 31° NNE
Cosmos 2266 Rocket 4.2 17:47:05 10° NNW 17:53:28 75° W 17:59:52 10° S
Cosmos 2360 Rocket 2.7 17:47:55 10° NNW 17:52:12 45° N 17:52:12 45° N
Cosmos 44 Rocket 4.2 17:49:38 10° NW 17:54:21 46° WSW 17:56:04 32° S
YAOGAN 1 4.1 17:56:50 28° NNW 17:56:50 28° NNW 17:58:54 10° NNW
CZ-4 R/B 4.1 17:59:29 11° NNW 17:59:29 11° NNW 17:59:42 10° NNW
Meteor 1-11 Rocket 3.8 17:51:46 10° NNW 17:57:23 75° W 18:03:05 10° S
Meteor 1-10 Rocket 4.3 17:52:45 10° SSW 17:58:32 77° WNW 18:00:37 41° N
COSMOS 2428 4.4 18:01:42 10° NNW 18:03:52 20° N 18:03:52 20° N
USA 305 4.4 18:06:12 10° WNW 18:08:40 34° WNW 18:08:40 34° WNW
Okean O Rocket 3.7 18:09:20 10° SSW 18:13:07 27° W 18:16:56 10° NW
Cosmos 2322 Rocket 2.3 18:08:23 10° NNW 18:13:54 73° W 18:13:54 73° W
SL-16 R/B 3.2 18:27:00 10° NW 18:32:19 42° WSW 18:33:21 38° SW
Cosmos 2082 Rocket 3.8 18:32:51 10° W 18:37:38 27° NW 18:38:46 26° NNW
ATLAS CENTAUR R/B 4.3 18:34:29 10° W 18:37:45 24° WNW 18:37:45 24° WNW
Cosmos 2333 Rocket 4.0 18:40:29 10° NNW 18:42:44 24° NNW 18:42:44 24° NNW
USA 267 4.1 19:03:55 43° NW 19:03:55 43° NW 19:08:46 10° WNW
Cosmos 2219 Rocket 4.4 19:01:00 10° NNW 19:02:19 18° NNW 19:02:19 18° NNW
ATLAS 2AS CENTAUR R/B 4.5 19:38:24 10° NW 19:41:27 26° NNW 19:41:27 26° NNW
